Location: Buch
(50.1863°N, 11.0141°E)
Time: 21:14:44
(UTC+00:00)

SL-4 R/B - Pass Details

Date: 18 January 2020
Orbit: 428 x 666 km, 51.6° (Epoch: 17 February)

Event Time Altitude Azimuth Distance (km) Brightness Sun altitude
Exits shadow 06:27:00 - 277° (W) 1,798 4.0 -6.5°
Reaches altitude 10° 06:27:37 10° 272° (W) 1,581 3.8 -6.4°
Maximum altitude 06:30:29 23° 217° (SW) 973 3.2 -6.0°
Drops below altitude 10° 06:33:15 10° 163° (SSE) 1,527 5.0 -5.6°
Sets 06:35:35 0° 148° (SSE) 2,382 6.4 -5.3°
